STARLINK-34339, 64160

Orbit data source: Space-Track

STARLINK-34339, 64160 is a payload satellite owned by SpaceX/Seattle (US) in SSO that was launched on Tue, 27 May 2025 UTC via an FALCON 9 launch vehicle from the Air Force Western Test Range (AFWTR). Payload-class satellites include a variety of spacecraft equipped with specific instruments for various scientific and technological missions. These include communications satellites like Starlink; space stations such as the ISS; scientific satellites like the Hubble; Earth observation satellites from companies like Planet Labs, Umbra, and HawkEye 360; GPS; miniature CubeSats for education and research; and military/defense satellites.

Loading next visibility...
Identifier
64160, 2025-112Q
Orbit
SSO
Country
Flag of USUS
Related business
Manufacturer
SpaceX/Seattle
Mission
Operational Commercial Communications
Bus & Motor
STARLINK V2MO, Unknown motor
Mass
575 kg wet, ~530 kg dry
Launch date (UTC)
2025-05-27 (1 year ago)
Launch vehicle
FALCON 9
Launch site
Air Force Western Test Range (AFWTR)
Object type
Payload
Rocket body
Debris
Shape & HBR
Box + 1 Pan, 17.7 m
Radar Cross Section
41.120 m², Large (>1 m²)

Expand to show TLE details & history
Last TLE update: 19 hours ago

TLE from 19 hours ago
0 STARLINK-34339
1 64160U 25112Q   26237.55288289  .00017283  00000-0  53628-3 0  9993
2 64160  97.2828 285.0288 0000964  96.1335 264.0017 15.33454324 68776
Epoch: 2026-08-25T13:16Z
TLE epoch observation values (Epoch: 2026-08-25T13:16:09.081Z)
Latitude
-0.0001°
Longitude
112.17239°
Altitude
468.697 km
Speed
7.632 km/s
True Right ascension
19h 00m 06s
True Declination
0° 00' 00"
Sunlit
Object was in full shadow at epoch
Visualization orbit readout
Latitude
Unknown
Longitude
Unknown
Altitude
Unknown
Speed
Unknown
Apparent Right ascension
Unknown
Apparent Declination
Unknown
Sunlit
N/A
Visualization observer readout
Local Sidereal Time
23:18:42
Azimuth
Unknown
Elevation
Unknown
Doppler factor
Unknown
Orbital elements
Apogee altitude
463.118 km
Perigee altitude
461.799 km
Semi-major axis
6,840.595 km
Eccentricity
0.0001
Inclination
97.2828°
RAAN
285.0288°
Arg. of periapsis
96.1335°
True anomaly
263.99071°
Mean anomaly
264.0017°
Eccentric anomaly
263.99621°
Mean motion
3.83621 °/min
Orbital period
93.84 mins
BSTAR
0.00053628
Loading maneuver chart data...
Computing Atmospheric mass density...
Loading historical data...
Loading historical data...
Loading historical data...
Loading historical data...
Loading historical data...
Loading historical data...
Loading historical data...

Documentation

Showing up to 5 results
|